Terug naar catalogus

CZ-2D DEB

ActiefSSO
NORAD 47974·DEBRIS·🇨🇳 China

Gelanceerd Sep 25, 2019 vanaf Jiuquan Satellite Launch Center

Loading…

Volgende Passages (komende 24 uur)

TLE

VersSource: Space-Track

Epoch: Sep 14, 2026, 04:18 UTC

1 47974U 19063D   26257.17923789  .00000377  00000-0  12411-3 0  9997
2 47974  98.4575 333.3851 0022988 262.6563  97.2014 14.43518385300442

Volg CZ-2D DEB in realtime met AllMySat

Download on the App Store